Weather History for KCUB - June, 2013

Change the Weather History Date:

Saturday, June 15, 2013

  Actual Average Record
Temperature  
Mean Temperature 76 °F 80 °F  
Max Temperature 88 °F 90 °F 96 °F (2005)
Min Temperature 63 °F 69 °F 63 °F (2007)
Degree Days  
Heating Degree Days 0 0  
Month to date heating degree days 0 0  
Since 1 June heating degree days 0 0  
Since 1 July heating degree days 2197 2315  
Cooling Degree Days 11 15  
Month to date cooling degree days 221 197  
Year to date cooling degree days 531 533  
Since 1 June cooling degree days 221 197  
Growing Degree Days 25 (Base 50)    
Moisture  
Dew Point 60 °F    
Average Humidity 61    
Maximum Humidity 93    
Minimum Humidity 34    
Precipitation  
Precipitation 0.00 in 0.17 in 0.65 in (2007)
Month to date precipitation 4.59 2.19  
Year to date precipitation 21.69 19.01  
Sea Level Pressure  
Sea Level Pressure 30.10 in    
Wind  
Wind Speed 2 mph (SE)    
Max Wind Speed 9 mph    
Max Gust Speed 15 mph    
Visibility 10 miles    
Events      
T = Trace of Precipitation, MM = Missing Value Source: NWS Daily Summary

Daily Weather History Graph

Daily Weather History Graph

Search for Another Location

Airport or City:

Trip Planner

Search our weather history database for the weather conditions in past years. The results will help you decide how hot, cold, wet, or windy it might be!

Date:

Astronomy

Jun. 15, 2013 Rise Set
Actual Time 6:12 AM EDT 8:36 PM EDT
Civil Twilight 5:43 AM EDT 9:06 PM EDT
Nautical Twilight 5:07 AM EDT 9:41 PM EDT
Astronomical Twilight 4:27 AM EDT 10:21 PM EDT
Moon 12:29 PM EDT (6/15) 12:26 AM EDT (6/15)
Length of Visible Light 15h 22m
Length of Day
14h 24m
Waxing Crescent, 39% of the Moon is Illuminated
Jun 15
Waxing Crescent
Jun 16
First Quarter
Jun 23
Full
Jun 30
Last Quarter
Jul 8
New

Hourly Weather History & Observations

Time (EDT) Temp. Heat Index Dew Point Humidity Pressure Visibility Wind Dir Wind Speed Gust Speed Precip Events Conditions
12:53 AM 68.0 °F - 61.0 °F 78% 30.04 in 10.0 mi Calm Calm - N/A   Clear
1:53 AM 66.9 °F - 61.0 °F 81% 30.05 in 10.0 mi Calm Calm - N/A   Clear
2:53 AM 64.9 °F - 61.0 °F 87% 30.06 in 10.0 mi Calm Calm - N/A   Clear
3:53 AM 64.9 °F - 61.0 °F 87% 30.05 in 10.0 mi Calm Calm - N/A   Clear
4:53 AM 63.0 °F - 60.1 °F 90% 30.05 in 10.0 mi Calm Calm - N/A   Clear
5:53 AM 63.0 °F - 60.1 °F 90% 30.07 in 10.0 mi Calm Calm - N/A   Clear
6:53 AM 64.0 °F - 61.0 °F 90% 30.10 in 10.0 mi Calm Calm - N/A   Clear
7:53 AM 71.1 °F - 62.1 °F 73% 30.12 in 10.0 mi Calm Calm - N/A   Clear
8:53 AM 73.9 °F - 62.1 °F 66% 30.13 in 10.0 mi Calm Calm - N/A   Clear
9:53 AM 78.1 °F - 64.0 °F 62% 30.14 in 10.0 mi SSE 4.6 mph - N/A   Clear
10:53 AM 82.0 °F 83.0 °F 62.1 °F 51% 30.15 in 10.0 mi Variable 3.5 mph - N/A   Clear
11:53 AM 82.9 °F 82.4 °F 57.0 °F 41% 30.14 in 10.0 mi Variable 3.5 mph - N/A   Clear
12:53 PM 84.9 °F 83.7 °F 55.9 °F 37% 30.13 in 10.0 mi Calm Calm - N/A   Partly Cloudy
1:53 PM 84.9 °F 83.7 °F 55.9 °F 37% 30.11 in 10.0 mi Variable 3.5 mph - N/A   Partly Cloudy
2:53 PM 86.0 °F 84.7 °F 55.9 °F 36% 30.11 in 10.0 mi ESE 5.8 mph - N/A   Mostly Cloudy
3:53 PM 87.1 °F 85.3 °F 55.0 °F 33% 30.09 in 10.0 mi East 4.6 mph - N/A   Mostly Cloudy
4:53 PM 84.0 °F 83.0 °F 55.9 °F 38% 30.09 in 10.0 mi Variable 3.5 mph - N/A   Mostly Cloudy
5:53 PM 86.0 °F 84.7 °F 55.9 °F 36% 30.08 in 10.0 mi South 4.6 mph - N/A   Clear
6:53 PM 84.9 °F 83.7 °F 55.9 °F 37% 30.08 in 10.0 mi Calm Calm - N/A   Clear
7:53 PM 82.9 °F 82.4 °F 57.0 °F 41% 30.09 in 10.0 mi Variable 4.6 mph - N/A   Clear
8:53 PM 80.1 °F 81.2 °F 62.1 °F 54% 30.08 in 10.0 mi Calm Calm - N/A   Clear
9:53 PM 77.0 °F - 63.0 °F 62% 30.09 in 10.0 mi Calm Calm - N/A   Clear
10:53 PM 73.9 °F - 64.0 °F 71% 30.12 in 10.0 mi Calm Calm - N/A   Clear
11:53 PM 72.0 °F - 64.9 °F 78% 30.13 in 10.0 mi Calm Calm - N/A   Clear